Location: Hilton Head Island
(32.2163°N, 80.7526°W)
Time: 18:18:33
(UTC-04:00)

A-11 Canister half - Pass Details

Date: 17 February 2026
Orbit: 1525 x 1683 km, 47.3° (Epoch: 10 March)

Event Time Altitude Azimuth Distance (km) Brightness Sun altitude
Rises 22:32:11 0° 308° (NW) 4,675 12.1 -54.7°
Reaches altitude 10° 22:35:16 10° 311° (NW) 3,695 11.4 -55.3°
Enters shadow 22:37:49 21° 316° (NW) 2,921 10.7 -55.8°
